Time,TemperatureF,DewpointF,PressureIn,WindDirection,WindDirectionDegrees,WindSpeedMPH,WindSpeedGustMPH,Humidity,HourlyPrecipIn,Conditions,Clouds,dailyrainin,SoftwareType,DateUTC
2013-03-25 00:52:00,10.0,2.0,-100.00,West,281,15.0,22.0,70,0.00,,,-99.99,,2013-03-25 06:52:00,
2013-03-25 01:02:00,10.0,2.0,-100.00,West,281,15.0,22.0,70,0.00,,,-99.99,,2013-03-25 07:02:00,
2013-03-25 01:12:00,10.0,2.0,-100.00,West,281,15.0,22.0,70,0.00,,,-99.99,,2013-03-25 07:12:00,
2013-03-25 01:22:00,10.0,2.0,-100.00,West,281,15.0,22.0,70,0.00,,,-99.99,,2013-03-25 07:22:00,
2013-03-25 01:32:00,10.0,2.0,-100.00,West,281,15.0,22.0,70,0.00,,,-99.99,,2013-03-25 07:32:00,
2013-03-25 04:23:00,9.0,2.0,-100.00,West,275,14.0,21.0,73,0.00,,,-99.99,,2013-03-25 10:23:00,
2013-03-25 06:02:00,9.0,1.0,-100.00,West,275,12.0,17.0,72,0.00,,,-99.99,,2013-03-25 12:02:00,
2013-03-25 06:13:00,9.0,1.0,-100.00,West,267,13.0,17.0,71,0.00,,,-99.99,,2013-03-25 12:13:00,
2013-03-25 06:23:00,8.0,1.0,-100.00,West,272,12.0,16.0,71,0.00,,,-99.99,,2013-03-25 12:23:00,
2013-03-25 06:32:00,8.0,1.0,-100.00,West,272,12.0,16.0,71,0.00,,,-99.99,,2013-03-25 12:32:00,
2013-03-25 06:42:00,8.0,1.0,-100.00,West,272,12.0,16.0,71,0.00,,,-99.99,,2013-03-25 12:42:00,
2013-03-25 06:52:00,8.0,1.0,-100.00,West,272,12.0,16.0,71,0.00,,,-99.99,,2013-03-25 12:52:00,
2013-03-25 07:02:00,8.0,1.0,-100.00,West,272,12.0,16.0,71,0.00,,,-99.99,,2013-03-25 13:02:00,
2013-03-25 07:32:00,8.0,0.0,-100.00,West,270,12.0,17.0,70,0.00,,,-99.99,,2013-03-25 13:32:00,
2013-03-25 07:43:00,9.0,1.0,-100.00,West,268,13.0,19.0,69,0.00,,,-99.99,,2013-03-25 13:43:00,
2013-03-25 07:52:00,9.0,1.0,-100.00,West,271,12.0,17.0,69,0.00,,,-99.99,,2013-03-25 13:52:00,
2013-03-25 08:03:00,9.0,1.0,-100.00,West,267,14.0,19.0,69,0.00,,,-99.99,,2013-03-25 14:03:00,
2013-03-25 08:12:00,9.0,1.0,-100.00,West,265,14.0,18.0,68,0.00,,,-99.99,,2013-03-25 14:12:00,
2013-03-25 08:22:00,10.0,1.0,-100.00,West,267,14.0,18.0,66,0.00,,,-99.99,,2013-03-25 14:22:00,
2013-03-25 08:32:00,10.0,1.0,-100.00,West,271,11.0,17.0,66,0.00,,,-99.99,,2013-03-25 14:32:00,
2013-03-25 08:42:00,10.0,1.0,-100.00,West,271,10.0,15.0,65,0.00,,,-99.99,,2013-03-25 14:42:00,
2013-03-25 08:52:00,11.0,1.0,-100.00,West,274,10.0,14.0,63,0.00,,,-99.99,,2013-03-25 14:52:00,
2013-03-25 09:02:00,11.0,1.0,-100.00,West,275,11.0,14.0,62,0.00,,,-99.99,,2013-03-25 15:02:00,
2013-03-25 09:12:00,12.0,1.0,-100.00,WNW,282,11.0,16.0,61,0.00,,,-99.99,,2013-03-25 15:12:00,
2013-03-25 09:22:00,13.0,1.0,-100.00,WNW,287,11.0,16.0,60,0.00,,,-99.99,,2013-03-25 15:22:00,
2013-03-25 09:32:00,13.0,0.0,-100.00,WNW,285,12.0,18.0,57,0.00,,,-99.99,,2013-03-25 15:32:00,
2013-03-25 09:42:00,13.0,0.0,-100.00,WNW,282,13.0,19.0,57,0.00,,,-99.99,,2013-03-25 15:42:00,
2013-03-25 09:53:00,14.0,0.0,-100.00,West,281,12.0,20.0,53,0.00,,,-99.99,,2013-03-25 15:53:00,
2013-03-25 10:03:00,14.0,0.0,-100.00,West,280,13.0,18.0,52,0.00,,,-99.99,,2013-03-25 16:03:00,
2013-03-25 10:12:00,14.0,-1.0,-100.00,WNW,282,13.0,18.0,49,0.00,,,-99.99,,2013-03-25 16:12:00,
2013-03-25 10:23:00,15.0,2.0,-100.00,WNW,288,13.0,18.0,54,0.00,,,-99.99,,2013-03-25 16:23:00,
2013-03-25 10:33:00,16.0,1.0,-100.00,NW,304,14.0,21.0,52,0.00,,,-99.99,,2013-03-25 16:33:00,
2013-03-25 10:52:00,17.0,-2.0,-100.00,WNW,295,12.0,20.0,42,0.00,,,-99.99,,2013-03-25 16:52:00,
2013-03-25 11:02:00,18.0,0.0,-100.00,WNW,298,9.0,13.0,45,0.00,,,-99.99,,2013-03-25 17:02:00,
2013-03-25 11:12:00,17.0,3.0,-100.00,NW,304,11.0,16.0,52,0.00,,,-99.99,,2013-03-25 17:12:00,
2013-03-25 11:23:00,19.0,1.0,-100.00,WNW,292,10.0,14.0,46,0.00,,,-99.99,,2013-03-25 17:23:00,
2013-03-25 11:32:00,19.0,0.0,-100.00,WNW,298,10.0,14.0,42,0.00,,,-99.99,,2013-03-25 17:32:00,
2013-03-25 11:42:00,19.0,-1.0,-100.00,WNW,301,9.0,12.0,41,0.00,,,-99.99,,2013-03-25 17:42:00,
2013-03-25 11:52:00,19.0,2.0,-100.00,WNW,295,12.0,14.0,46,0.00,,,-99.99,,2013-03-25 17:52:00,
2013-03-25 12:03:00,19.0,0.0,-100.00,WNW,302,12.0,16.0,42,0.00,,,-99.99,,2013-03-25 18:03:00,
2013-03-25 12:12:00,19.0,2.0,-100.00,NW,305,12.0,16.0,46,0.00,,,-99.99,,2013-03-25 18:12:00,
2013-03-25 12:22:00,20.0,-2.0,-100.00,NW,311,14.0,17.0,38,0.00,,,-99.99,,2013-03-25 18:22:00,
2013-03-25 12:33:00,20.0,-2.0,-100.00,NW,309,16.0,19.0,38,0.00,,,-99.99,,2013-03-25 18:33:00,
2013-03-25 12:42:00,20.0,-3.0,-100.00,NW,306,16.0,18.0,36,0.00,,,-99.99,,2013-03-25 18:42:00,
2013-03-25 12:52:00,20.0,-2.0,-100.00,WNW,302,16.0,19.0,37,0.00,,,-99.99,,2013-03-25 18:52:00,
2013-03-25 13:03:00,20.0,-2.0,-100.00,NW,306,17.0,19.0,37,0.00,,,-99.99,,2013-03-25 19:03:00,
2013-03-25 13:12:00,20.0,0.0,-100.00,NW,304,16.0,19.0,41,0.00,,,-99.99,,2013-03-25 19:12:00,
2013-03-25 13:22:00,20.0,2.0,-100.00,WNW,302,16.0,20.0,44,0.00,,,-99.99,,2013-03-25 19:22:00,
2013-03-25 13:33:00,21.0,4.0,-100.00,WNW,299,15.0,20.0,49,0.00,,,-99.99,,2013-03-25 19:33:00,
2013-03-25 13:42:00,20.0,4.0,-100.00,WNW,302,16.0,18.0,49,0.00,,,-99.99,,2013-03-25 19:42:00,
2013-03-25 13:52:00,20.0,7.0,-100.00,WNW,302,16.0,20.0,55,0.00,,,-99.99,,2013-03-25 19:52:00,
2013-03-25 14:12:00,21.0,5.0,-100.00,WNW,301,16.0,19.0,50,0.00,,,-99.99,,2013-03-25 20:12:00,
2013-03-25 14:22:00,21.0,6.0,-100.00,NW,308,16.0,19.0,51,0.00,,,-99.99,,2013-03-25 20:22:00,
2013-03-25 14:32:00,22.0,8.0,-100.00,NW,308,15.0,19.0,53,0.00,,,-99.99,,2013-03-25 20:32:00,
2013-03-25 14:42:00,23.0,7.0,-100.00,WNW,302,14.0,18.0,50,0.00,,,-99.99,,2013-03-25 20:42:00,
2013-03-25 14:52:00,23.0,7.0,-100.00,WNW,302,16.0,20.0,50,0.00,,,-99.99,,2013-03-25 20:52:00,
2013-03-25 15:02:00,23.0,8.0,-100.00,WNW,301,16.0,19.0,52,0.00,,,-99.99,,2013-03-25 21:02:00,
2013-03-25 15:12:00,23.0,9.0,-100.00,NW,304,16.0,21.0,54,0.00,,,-99.99,,2013-03-25 21:12:00,
2013-03-25 15:22:00,24.0,5.0,-100.00,WNW,294,15.0,20.0,44,0.00,,,-99.99,,2013-03-25 21:22:00,
2013-03-25 15:33:00,23.0,4.0,-100.00,WNW,294,16.0,20.0,43,0.00,,,-99.99,,2013-03-25 21:33:00,
2013-03-25 15:42:00,23.0,4.0,-100.00,WNW,296,16.0,20.0,43,0.00,,,-99.99,,2013-03-25 21:42:00,
2013-03-25 15:52:00,24.0,4.0,-100.00,WNW,295,15.0,21.0,42,0.00,,,-99.99,,2013-03-25 21:52:00,
2013-03-25 16:03:00,24.0,4.0,-100.00,WNW,295,16.0,19.0,43,0.00,,,-99.99,,2013-03-25 22:03:00,
2013-03-25 16:12:00,23.0,3.0,-100.00,WNW,295,17.0,21.0,41,0.00,,,-99.99,,2013-03-25 22:12:00,
2013-03-25 16:23:00,24.0,2.0,-100.00,WNW,295,16.0,20.0,39,0.00,,,-99.99,,2013-03-25 22:23:00,
2013-03-25 16:33:00,23.0,1.0,-100.00,WNW,292,15.0,20.0,37,0.00,,,-99.99,,2013-03-25 22:33:00,
2013-03-25 16:42:00,23.0,-1.0,-100.00,WNW,295,16.0,20.0,36,0.00,,,-99.99,,2013-03-25 22:42:00,
2013-03-25 16:52:00,24.0,1.0,-100.00,WNW,292,14.0,20.0,37,0.00,,,-99.99,,2013-03-25 22:52:00,
2013-03-25 17:02:00,24.0,1.0,-100.00,WNW,294,15.0,19.0,37,0.00,,,-99.99,,2013-03-25 23:02:00,
2013-03-25 17:12:00,24.0,2.0,-100.00,WNW,295,14.0,19.0,38,0.00,,,-99.99,,2013-03-25 23:12:00,
2013-03-25 17:22:00,24.0,3.0,-100.00,WNW,294,14.0,17.0,40,0.00,,,-99.99,,2013-03-25 23:22:00,
2013-03-25 17:32:00,24.0,4.0,-100.00,WNW,291,12.0,16.0,41,0.00,,,-99.99,,2013-03-25 23:32:00,
2013-03-25 17:42:00,24.0,3.0,-100.00,WNW,288,11.0,15.0,41,0.00,,,-99.99,,2013-03-25 23:42:00,
2013-03-25 17:52:00,23.0,4.0,-100.00,West,281,9.0,14.0,43,0.00,,,-99.99,,2013-03-25 23:52:00,
2013-03-25 18:02:00,24.0,5.0,-100.00,West,265,7.0,12.0,45,0.00,,,-99.99,,2013-03-26 00:02:00,
2013-03-25 18:12:00,24.0,4.0,-100.00,WSW,237,4.0,9.0,42,0.00,,,-99.99,,2013-03-26 00:12:00,
2013-03-25 18:22:00,24.0,4.0,-100.00,SSW,198,4.0,6.0,43,0.00,,,-99.99,,2013-03-26 00:22:00,
2013-03-25 18:32:00,22.0,6.0,-100.00,SW,223,1.0,4.0,48,0.00,,,-99.99,,2013-03-26 00:32:00,
2013-03-25 18:42:00,24.0,5.0,-100.00,SSE,160,0.0,2.0,43,0.00,,,-99.99,,2013-03-26 00:42:00,
2013-03-25 18:52:00,23.0,4.0,-100.00,ESE,107,0.0,1.0,45,0.00,,,-99.99,,2013-03-26 00:52:00,
2013-03-25 19:02:00,22.0,5.0,-100.00,East,93,1.0,5.0,47,0.00,,,-99.99,,2013-03-26 01:02:00,
2013-03-25 19:12:00,20.0,4.0,-100.00,SE,145,2.0,5.0,51,0.00,,,-99.99,,2013-03-26 01:12:00,
2013-03-25 19:22:00,20.0,4.0,-100.00,South,169,1.0,3.0,51,0.00,,,-99.99,,2013-03-26 01:22:00,
2013-03-25 19:32:00,19.0,5.0,-100.00,SSW,213,2.0,5.0,54,0.00,,,-99.99,,2013-03-26 01:32:00,
2013-03-25 19:42:00,20.0,5.0,-100.00,WSW,244,3.0,4.0,51,0.00,,,-99.99,,2013-03-26 01:42:00,
2013-03-25 19:52:00,20.0,4.0,-100.00,WSW,256,3.0,4.0,49,0.00,,,-99.99,,2013-03-26 01:52:00,
2013-03-25 20:02:00,20.0,4.0,-100.00,WSW,246,2.0,6.0,48,0.00,,,-99.99,,2013-03-26 02:02:00,
2013-03-25 20:12:00,19.0,4.0,-100.00,WSW,237,2.0,4.0,51,0.00,,,-99.99,,2013-03-26 02:12:00,
2013-03-25 20:22:00,17.0,3.0,-100.00,SW,233,1.0,2.0,54,0.00,,,-99.99,,2013-03-26 02:22:00,
2013-03-25 20:32:00,17.0,3.0,-100.00,SW,215,1.0,3.0,54,0.00,,,-99.99,,2013-03-26 02:32:00,
2013-03-25 20:42:00,19.0,3.0,-100.00,WSW,248,2.0,4.0,51,0.00,,,-99.99,,2013-03-26 02:42:00,
2013-03-25 20:52:00,16.0,1.0,-100.00,WSW,237,4.0,6.0,52,0.00,,,-99.99,,2013-03-26 02:52:00,
2013-03-25 21:02:00,17.0,3.0,-100.00,SSW,208,2.0,4.0,54,0.00,,,-99.99,,2013-03-26 03:02:00,
2013-03-25 21:12:00,17.0,3.0,-100.00,SSW,202,1.0,4.0,52,0.00,,,-99.99,,2013-03-26 03:12:00,
2013-03-25 21:22:00,17.0,3.0,-100.00,SW,223,2.0,4.0,54,0.00,,,-99.99,,2013-03-26 03:22:00,
2013-03-25 21:33:00,18.0,2.0,-100.00,SW,217,2.0,6.0,50,0.00,,,-99.99,,2013-03-26 03:33:00,
2013-03-25 21:42:00,18.0,2.0,-100.00,SSW,199,4.0,6.0,50,0.00,,,-99.99,,2013-03-26 03:42:00,
2013-03-25 21:52:00,19.0,2.0,-100.00,South,172,6.0,9.0,48,0.00,,,-99.99,,2013-03-26 03:52:00,
2013-03-25 22:03:00,18.0,1.0,-100.00,South,189,8.0,12.0,47,0.00,,,-99.99,,2013-03-26 04:03:00,
2013-03-25 22:12:00,18.0,2.0,-100.00,SSW,192,7.0,11.0,49,0.00,,,-99.99,,2013-03-26 04:12:00,
2013-03-25 22:23:00,19.0,0.0,-100.00,South,188,7.0,11.0,42,0.00,,,-99.99,,2013-03-26 04:23:00,
2013-03-25 22:32:00,17.0,-1.0,-100.00,SSW,192,6.0,10.0,45,0.00,,,-99.99,,2013-03-26 04:32:00,
2013-03-25 22:52:00,19.0,-1.0,-100.00,South,182,6.0,9.0,40,0.00,,,-99.99,,2013-03-26 04:52:00,
2013-03-25 23:02:00,18.0,-3.0,-100.00,South,191,4.0,9.0,40,0.00,,,-99.99,,2013-03-26 05:02:00,
2013-03-25 23:12:00,18.0,-4.0,-100.00,West,264,4.0,9.0,36,0.00,,,-99.99,,2013-03-26 05:12:00,
2013-03-25 23:22:00,18.0,-4.0,-100.00,WSW,240,2.0,5.0,37,0.00,,,-99.99,,2013-03-26 05:22:00,
2013-03-25 23:32:00,19.0,-5.0,-100.00,SW,224,7.0,16.0,33,0.00,,,-99.99,,2013-03-26 05:32:00,
2013-03-25 23:42:00,18.0,-4.0,-100.00,SW,223,10.0,14.0,37,0.00,,,-99.99,,2013-03-26 05:42:00,
2013-03-25 23:52:00,17.0,-3.0,-100.00,SW,233,9.0,11.0,40,0.00,,,-99.99,,2013-03-26 05:52:00,